Weather History for Nome, AK

Change the Weather History Date:

Friday, January 25, 2013

  Actual Average Record
Temperature  
Mean Temperature 1 °F -  
Max Temperature 9 °F 13 °F 41 °F (1963)
Min Temperature -7 °F -3 °F -47 °F (1919)
Degree Days  
Heating Degree Days 64 60  
Month to date heating degree days 1218 1493  
Since 1 July heating degree days 7345 7311  
Cooling Degree Days 0    
Month to date cooling degree days 0  
Year to date cooling degree days 0  
Moisture  
Dew Point -12 °F    
Average Humidity 0    
Maximum Humidity 0    
Minimum Humidity 0    
Precipitation  
Precipitation 0.00 in 0.03 in 0.40 in (1937)
Month to date precipitation 0.92 0.76  
Year to date precipitation 0.92 0.76  
Snow  
Snow 0.00 in 0.30 in 4.40 in (1937)
Month to date snowfall 11.9 10.3  
Since 1 July snowfall 29.2 42.1  
Snow Depth 22.00 in    
Sea Level Pressure  
Sea Level Pressure 30.22 in    
Wind  
Wind Speed 8 mph (NNW)    
Max Wind Speed 21 mph    
Max Gust Speed 24 mph    
Visibility 10 miles    
Events      
T = Trace of Precipitation, MM = Missing Value Source: NWS Daily Summary

Daily Weather History Graph

Daily Weather History Graph

Search for Another Location

Airport:

Trip Planner

Search our weather history database for the weather conditions in past years. The results will help you decide how hot, cold, wet, or windy it might be!

Date:

Astronomy

Jan. 25, 2013 Rise Set
Actual Time 11:04 AM AKST 5:24 PM AKST
Civil Twilight 10:02 AM AKST 6:26 PM AKST
Nautical Twilight 9:01 AM AKST 7:28 PM AKST
Astronomical Twilight 8:03 AM AKST 8:25 PM AKST
Moon 4:37 PM AKST (1/25) 9:52 AM AKST (1/25)
Length of Visible Light 8h 23m
Length of Day
6h 20m
Waxing Gibbous, 98% of the Moon is Illuminated
Jan 25
Waxing Gibbous
Jan 26
Full
Feb 3
Last Quarter
Feb 9
New
Feb 17
First Quarter

Hourly Weather History & Observations

Time (AKST) Temp. Windchill Dew Point Humidity Pressure Visibility Wind Dir Wind Speed Gust Speed Precip Events Conditions
12:53 AM 5.0 °F -13.0 °F -11.9 °F 46% 30.19 in 10.0 mi North 15.0 mph - N/A   Clear
1:53 AM 5.0 °F -13.6 °F -11.9 °F 46% 30.21 in 10.0 mi North 16.1 mph - N/A   Clear
3:53 AM 6.1 °F -12.8 °F -11.0 °F 45% 30.21 in 10.0 mi North 17.3 mph - N/A   Clear
4:53 AM 6.1 °F -9.5 °F -9.9 °F 48% 30.22 in 10.0 mi North 11.5 mph - N/A   Partly Cloudy
5:53 AM 6.1 °F -5.6 °F -11.9 °F 44% 30.22 in 10.0 mi NNW 6.9 mph - N/A   Partly Cloudy
6:53 AM 1.9 °F - -11.9 °F 52% 30.22 in 10.0 mi Calm Calm - N/A   Partly Cloudy
7:53 AM -2.0 °F - -14.1 °F 57% 30.21 in 10.0 mi Calm Calm - N/A   Partly Cloudy
8:53 AM -0.9 °F - -13.0 °F 57% 30.23 in 10.0 mi Calm Calm - N/A   Partly Cloudy
9:53 AM -4.0 °F - -13.0 °F 65% 30.22 in 10.0 mi Calm Calm - N/A   Clear
10:53 AM -4.0 °F - -13.0 °F 65% 30.24 in 10.0 mi Calm Calm - N/A   Clear
11:53 AM 1.0 °F -6.7 °F -11.0 °F 57% 30.23 in 10.0 mi Variable 3.5 mph - N/A   Clear
12:53 PM -6.0 °F -18.6 °F -15.0 °F 65% 30.22 in 10.0 mi West 5.8 mph - N/A   Clear
1:53 PM -2.0 °F - -9.4 °F 71% 30.23 in 10.0 mi Calm Calm - N/A   Clear
2:53 PM 3.0 °F - -9.4 °F 56% 30.23 in 10.0 mi Calm Calm - N/A   Clear
3:53 PM 1.9 °F -9.2 °F -9.4 °F 59% 30.23 in 10.0 mi North 5.8 mph - N/A   Clear
4:53 PM 5.0 °F -15.7 °F -8.0 °F 55% 30.22 in 10.0 mi NNE 20.7 mph - N/A   Clear
5:53 PM 3.0 °F -16.7 °F -9.0 °F 57% 30.22 in 10.0 mi NNE 17.3 mph - N/A   Clear
6:53 PM 1.9 °F -15.5 °F -11.0 °F 55% 30.23 in 10.0 mi North 12.7 mph - N/A   Clear
7:53 PM 1.9 °F -14.7 °F -11.9 °F 52% 30.22 in 10.0 mi NNW 11.5 mph - N/A   Clear
8:53 PM 5.0 °F -5.6 °F -11.9 °F 46% 30.23 in 10.0 mi NNW 5.8 mph - N/A   Clear
9:53 PM 6.1 °F -7.8 °F -11.0 °F 45% 30.23 in 10.0 mi North 9.2 mph 23.0 mph N/A   Clear
10:53 PM 3.0 °F -9.3 °F -13.0 °F 47% 30.23 in 10.0 mi WNW 6.9 mph - N/A   Clear
11:53 PM 5.0 °F -6.9 °F -13.0 °F 43% 30.24 in 10.0 mi WNW 6.9 mph - N/A   Clear